Back to catalog

STARLINK-6231

AliveCommunicationsVLEO
NORAD 56779·PAYLOAD·🇺🇸 United States

Launched May 31, 2023 from Vandenberg Space Force Base

Loading…

Next Passes (next 24 hours)

TLE

FreshSource: CelesTrak SupGP

Epoch: Sep 14, 2026, 14:59 UTC

1 56779C 23078N   26257.62479167  .00014074  00000+0  11797-2 0  2577
2 56779  70.0018 208.0841 0003445 267.8173 106.9255 14.98315341    13

Track STARLINK-6231 in real time with AllMySat

Download on the App Store